Palmer, AK

7:50 AM AKST on January 22, 2018 (GMT -0900)
Palmer Municipal

Weather History for PAAQ - September, 2013

Change the Weather History Date:

Wednesday, September 18, 2013

  Actual Average Record
Temperature  
Mean Temperature 46 °F -  
Max Temperature 50 °F 55 °F 65 °F (1969)
Min Temperature 43 °F 39 °F 27 °F (1962)
Degree Days  
Heating Degree Days 20    
Moisture  
Dew Point 44 °F    
Average Humidity 94    
Maximum Humidity 100    
Minimum Humidity 77    
Precipitation  
Precipitation 0.44 in - - ()
Sea Level Pressure  
Sea Level Pressure 29.58 in    
Wind  
Wind Speed 1 mph (ESE)    
Max Wind Speed 9 mph    
Max Gust Speed -    
Visibility 8 miles    
Events Fog , Rain    
Averages and records for this station are not official NWS values.
T = Trace of Precipitation, MM = Missing Value Source: NWS Daily Summary

Daily Weather History Graph

Daily Weather History Graph

Search for Another Location

Airport or City:

Trip Planner

Search our weather history database for the weather conditions in past years. The results will help you decide how hot, cold, wet, or windy it might be!

Date:

Astronomy

Sep. 18, 2013 Rise Set
Actual Time 7:31 AM AKDT 8:07 PM AKDT
Civil Twilight 6:47 AM AKDT 8:51 PM AKDT
Nautical Twilight 5:52 AM AKDT 9:45 PM AKDT
Astronomical Twilight 4:51 AM AKDT 10:46 PM AKDT
Moon 7:28 PM AKDT (9/18) 6:43 AM AKDT (9/18)
Length of Visible Light 14h 04m
Length of Day
12h 36m
Waxing Gibbous, 99% of the Moon is Illuminated
Sep 18
Waxing Gibbous
Sep 19
Full
Sep 26
Last Quarter
Oct 4
New
Oct 11
First Quarter

Hourly Weather History & Observations

Time (AKDT) Temp. Windchill Dew Point Humidity Pressure Visibility Wind Dir Wind Speed Gust Speed Precip Events Conditions
12:12 AM 44.6 °F - 44.6 °F 100% 29.52 in 1.8 mi Calm Calm - N/A   Overcast
12:22 AM 44.6 °F - 44.6 °F 100% 29.52 in 0.8 mi Calm Calm - N/A   Overcast
12:29 AM 44.6 °F - 44.6 °F 100% 29.52 in 2.0 mi Calm Calm - 0.00 in Rain Light Rain
12:36 AM 44.6 °F - 44.6 °F 100% 29.53 in 9.0 mi Calm Calm - 0.00 in Rain Light Rain
12:53 AM 45.0 °F - 44.1 °F 97% 29.54 in 1.8 mi Calm Calm - 0.00 in   Overcast
1:16 AM 44.6 °F - 44.6 °F 100% 29.53 in 0.5 mi Calm Calm - N/A Fog Fog
1:50 AM 44.6 °F - 44.6 °F 100% 29.54 in 1.8 mi Calm Calm - N/A   Overcast
1:53 AM 45.0 °F - 44.1 °F 97% 29.55 in 4.0 mi Calm Calm - N/A   Overcast
2:06 AM 44.6 °F - 44.6 °F 100% 29.54 in 10.0 mi Calm Calm - N/A   Overcast
2:53 AM 45.0 °F - 44.1 °F 97% 29.56 in 10.0 mi Calm Calm - N/A   Overcast
3:01 AM 44.6 °F - 44.6 °F 100% 29.55 in 10.0 mi Calm Calm - N/A   Overcast
3:53 AM 44.1 °F - 43.0 °F 96% 29.56 in 8.0 mi Calm Calm - 0.00 in Rain Light Rain
4:25 AM 44.6 °F - 42.8 °F 93% 29.56 in 8.0 mi Calm Calm - 0.01 in Rain Light Rain
4:53 AM 45.0 °F - 43.0 °F 93% 29.57 in 10.0 mi Calm Calm - 0.02 in Rain Light Rain
5:09 AM 44.6 °F - 42.8 °F 93% 29.56 in 10.0 mi Calm Calm - 0.00 in Rain Light Rain
5:53 AM 44.1 °F - 43.0 °F 96% 29.57 in 9.0 mi Calm Calm - 0.02 in Rain Light Rain
6:22 AM 44.6 °F - 42.8 °F 93% 29.57 in 9.0 mi Calm Calm - 0.03 in Rain Light Rain
6:53 AM 44.1 °F - 43.0 °F 96% 29.59 in 7.0 mi Calm Calm - 0.07 in Rain Light Rain
7:35 AM 44.6 °F 43.1 °F 42.8 °F 93% 29.58 in 7.0 mi ESE 3.5 mph - 0.03 in Rain Light Rain
7:53 AM 43.0 °F - 43.0 °F 100% 29.60 in 5.0 mi Calm Calm - 0.04 in Rain Light Rain
8:53 AM 43.0 °F 40.3 °F 43.0 °F 100% 29.61 in 10.0 mi SSE 4.6 mph - 0.03 in Rain Light Rain
9:53 AM 44.1 °F - 43.0 °F 96% 29.62 in 8.0 mi Calm Calm - 0.01 in Rain Light Rain
10:04 AM 44.6 °F - 42.8 °F 93% 29.61 in 9.0 mi Calm Calm - 0.00 in   Overcast
10:53 AM 45.0 °F 41.8 °F 43.0 °F 93% 29.62 in 10.0 mi ESE 5.8 mph - 0.00 in   Overcast
11:53 AM 48.0 °F - 44.1 °F 86% 29.62 in 10.0 mi East 6.9 mph - N/A   Overcast
12:53 PM 48.9 °F - 43.0 °F 80% 29.62 in 10.0 mi ESE 9.2 mph - N/A   Mostly Cloudy
1:53 PM 48.0 °F - 41.0 °F 77% 29.62 in 10.0 mi SE 8.1 mph - N/A   Overcast
2:53 PM 48.9 °F - 42.1 °F 77% 29.62 in 10.0 mi SE 4.6 mph - N/A   Overcast
3:53 PM 48.9 °F - 43.0 °F 80% 29.62 in 10.0 mi Calm Calm - 0.00 in   Overcast
4:35 PM 48.2 °F - 46.4 °F 93% 29.61 in 7.0 mi South 3.5 mph - 0.01 in Rain Light Rain
4:46 PM 48.2 °F - 46.4 °F 93% 29.61 in 8.0 mi SSW 3.5 mph - 0.01 in Rain Light Rain
4:53 PM 48.0 °F - 46.0 °F 93% 29.62 in 7.0 mi SW 3.5 mph - 0.02 in Rain Light Rain
5:53 PM 48.0 °F - 45.0 °F 89% 29.62 in 10.0 mi Calm Calm - 0.04 in   Overcast
6:53 PM 48.0 °F - 45.0 °F 89% 29.61 in 10.0 mi Calm Calm - N/A   Overcast
7:53 PM 46.9 °F - 45.0 °F 93% 29.61 in 10.0 mi Calm Calm - 0.01 in Rain Light Rain
8:53 PM 46.9 °F - 45.0 °F 93% 29.60 in 10.0 mi North 3.5 mph - 0.00 in   Overcast
9:53 PM 46.0 °F 44.8 °F 44.1 °F 93% 29.60 in 10.0 mi NNE 3.5 mph - N/A   Overcast
10:53 PM 45.0 °F 43.5 °F 43.0 °F 93% 29.61 in 5.0 mi NNW 3.5 mph - 0.05 in Rain Rain
11:53 PM 45.0 °F 41.8 °F 43.0 °F 93% 29.60 in 5.0 mi East 5.8 mph - 0.13 in Rain Rain